User: anonymous   Login
Location: Unspecified
(0.0000°N, 0.0000°E)
Time: 04:53:19
(UTC+02:00)
Language:

Milstar 3 - Orbit

View from above orbital plane
View from above orbital plane
View from above satellite
View from above satellite

Ground track
Ground track

The orbit data is extracted from the following two-line orbital elements,

1 25724U 99023A   16157.17880135 0.00000000  00000-0  00000-0 0    09
2 25724  28.2236 108.3085 2134299 288.8775  71.1220  9.37450473    00
Epoch (UTC): 05 June 2016 04:17:28
Eccentricity: 0.2134299
inclination: 28.2236°
perigee height: 1095 km
apogee height: 5150 km
right ascension of ascending node: 108.3085°
argument of perigee: 288.8775°
revolutions per day: 9.37450473
mean anomaly at epoch: 71.1220°
orbit number at epoch: 0

The dashed part of the orbit path shows where the satellite is in the earth's shadow,  

DLR